Location: Caltech
(34.1382°N, 118.1253°W)
Time: 16:50:45
(UTC-07:00)

Lacrosse 5 - Visible Passes

Search period start: 22 October 2014 00:00
Search period end: 01 November 2014 00:00
Orbit: 706 x 722 km, 57.0° (Epoch: 19 October)

Date Brightness Start Highest point End Pass type
(mag) Time Alt. Az. Time Alt. Az. Time Alt. Az.
22 Oct 3.7 19:07:16 10° WNW 19:11:42 32° WSW 19:16:07 10° S visible
24 Oct 4.7 19:01:28 10° WNW 19:04:40 17° WSW 19:07:52 10° SSW visible
28 Oct 4.9 06:40:54 10° SSE 06:44:05 17° ESE 06:47:16 10° ENE visible
30 Oct 3.9 06:32:36 10° S 06:37:03 32° ESE 06:41:30 10° ENE visible
31 Oct 4.8 05:39:46 10° SSE 05:42:33 15° ESE 05:45:21 10° E visible
